TimeCST,TemperatureF,Dew PointF,Humidity,Sea Level PressureIn,VisibilityMPH,Wind Direction,Wind SpeedMPH,Gust SpeedMPH,PrecipitationIn,Events,Conditions,WindDirDegrees,DateUTC
12:15 AM,38.7,37.0,94,29.77,0.2,Calm,Calm,-,N/A,,Unknown,0,2012-12-09 06:15:00
12:35 AM,37.2,35.6,94,29.76,0.2,SSW,3.5,-,N/A,,Unknown,210,2012-12-09 06:35:00
12:55 AM,37.0,35.6,95,29.75,0.2,South,3.5,-,N/A,,Unknown,190,2012-12-09 06:55:00
1:15 AM,37.4,36.0,95,29.74,0.2,South,3.5,-,N/A,,Unknown,190,2012-12-09 07:15:00
1:35 AM,38.3,36.9,95,29.74,0.2,Calm,Calm,-,N/A,,Unknown,0,2012-12-09 07:35:00
1:55 AM,37.0,35.6,95,29.75,0.2,West,3.5,-,N/A,,Unknown,270,2012-12-09 07:55:00
2:15 AM,37.4,35.8,94,29.74,0.2,Calm,Calm,-,N/A,,Mostly Cloudy,0,2012-12-09 08:15:00
2:35 AM,37.4,36.0,95,29.74,0.2,Calm,Calm,-,N/A,,Overcast,0,2012-12-09 08:35:00
2:55 AM,37.6,36.1,95,29.74,0.2,NNW,3.5,-,N/A,,Overcast,340,2012-12-09 08:55:00
3:35 AM,39.4,37.9,95,29.74,0.2,South,3.5,-,N/A,,Overcast,190,2012-12-09 09:35:00
3:55 AM,38.8,37.4,95,29.73,0.2,SW,4.6,-,N/A,,Overcast,220,2012-12-09 09:55:00
4:15 AM,37.8,36.3,95,29.75,0.2,West,5.8,-,N/A,,Mostly Cloudy,260,2012-12-09 10:15:00
4:55 AM,37.9,36.5,95,29.78,0.2,North,10.4,-,N/A,,Overcast,350,2012-12-09 10:55:00
5:15 AM,39.2,37.9,95,29.80,0.2,North,5.8,-,N/A,,Overcast,360,2012-12-09 11:15:00
5:35 AM,41.2,39.9,95,29.81,1.0,North,9.2,-,N/A,,Overcast,350,2012-12-09 11:35:00
5:55 AM,42.4,41.2,95,29.82,1.0,North,8.1,-,N/A,,Overcast,350,2012-12-09 11:55:00
6:15 AM,43.3,42.1,95,29.83,2.5,North,8.1,-,N/A,,Overcast,350,2012-12-09 12:15:00
6:35 AM,44.1,42.8,95,29.83,3.0,North,9.2,-,N/A,,Overcast,350,2012-12-09 12:35:00
6:55 AM,44.8,43.5,95,29.83,3.0,North,10.4,-,N/A,,Overcast,350,2012-12-09 12:55:00
7:15 AM,44.8,43.7,96,29.85,2.5,North,8.1,-,N/A,,Overcast,350,2012-12-09 13:15:00
7:35 AM,45.1,44.1,96,29.87,3.0,NNW,6.9,-,N/A,,Overcast,340,2012-12-09 13:35:00
7:55 AM,46.2,45.0,95,29.90,4.0,NNW,9.2,-,N/A,,Overcast,330,2012-12-09 13:55:00
8:15 AM,46.4,45.3,96,29.91,3.0,North,10.4,-,N/A,,Overcast,350,2012-12-09 14:15:00
8:35 AM,46.9,45.7,95,29.92,4.0,North,15.0,24.2,N/A,,Overcast,360,2012-12-09 14:35:00
8:55 AM,47.3,45.9,95,29.94,5.0,North,17.3,21.9,N/A,,Overcast,360,2012-12-09 14:55:00
9:15 AM,47.3,45.7,94,29.95,5.0,North,16.1,20.7,N/A,,Unknown,360,2012-12-09 15:15:00
9:35 AM,47.5,45.3,92,29.95,5.0,North,17.3,-,N/A,,Overcast,360,2012-12-09 15:35:00
9:55 AM,48.6,43.2,82,29.96,7.0,North,15.0,27.6,N/A,,Overcast,360,2012-12-09 15:55:00
10:35 AM,50.0,37.8,63,29.98,10.0,North,24.2,28.8,N/A,,Overcast,10,2012-12-09 16:35:00
10:55 AM,50.4,33.8,53,29.99,10.0,North,25.3,32.2,N/A,,Mostly Cloudy,360,2012-12-09 16:55:00
11:15 AM,51.6,32.9,49,30.00,10.0,North,25.3,31.1,N/A,,Scattered Clouds,360,2012-12-09 17:15:00
11:35 AM,52.0,30.6,44,30.00,10.0,North,27.6,33.4,N/A,,Clear,360,2012-12-09 17:35:00
11:55 AM,52.3,28.4,40,30.00,10.0,North,23.0,32.2,N/A,,Clear,360,2012-12-09 17:55:00
12:15 PM,53.1,27.0,37,30.00,10.0,NNE,23.0,33.4,N/A,,Clear,20,2012-12-09 18:15:00
12:35 PM,53.8,25.9,34,29.99,10.0,North,23.0,32.2,N/A,,Clear,10,2012-12-09 18:35:00
12:55 PM,54.1,24.6,32,29.98,10.0,NNE,23.0,29.9,N/A,,Clear,20,2012-12-09 18:55:00
1:15 PM,54.5,24.1,31,29.97,10.0,North,23.0,33.4,N/A,,Clear,10,2012-12-09 19:15:00
1:35 PM,54.5,23.2,30,29.97,10.0,North,24.2,28.8,N/A,,Clear,10,2012-12-09 19:35:00
1:55 PM,54.9,22.1,28,29.98,10.0,North,19.6,31.1,N/A,,Clear,10,2012-12-09 19:55:00
2:15 PM,54.5,19.9,26,29.98,10.0,North,19.6,32.2,N/A,,Clear,360,2012-12-09 20:15:00
2:35 PM,54.3,18.1,24,29.98,10.0,North,19.6,31.1,N/A,,Clear,360,2012-12-09 20:35:00
2:55 PM,54.0,16.5,23,29.99,10.0,North,24.2,29.9,N/A,,Clear,360,2012-12-09 20:55:00
3:15 PM,53.1,14.9,22,29.99,10.0,North,17.3,28.8,N/A,,Clear,10,2012-12-09 21:15:00
3:35 PM,52.7,14.9,22,30.00,10.0,NNE,18.4,27.6,N/A,,Clear,20,2012-12-09 21:35:00
3:55 PM,51.8,12.9,21,30.00,10.0,North,19.6,27.6,N/A,,Clear,360,2012-12-09 21:55:00
4:15 PM,50.9,11.8,21,30.01,10.0,North,21.9,-,N/A,,Clear,10,2012-12-09 22:15:00
4:35 PM,49.5,11.3,22,30.02,10.0,North,19.6,26.5,N/A,,Clear,10,2012-12-09 22:35:00
4:55 PM,48.2,10.0,21,30.03,10.0,North,23.0,29.9,N/A,,Clear,10,2012-12-09 22:55:00
5:15 PM,46.6,8.4,21,30.04,10.0,North,19.6,26.5,N/A,,Clear,10,2012-12-09 23:15:00
5:35 PM,45.0,8.6,23,30.04,10.0,North,25.3,29.9,N/A,,Clear,10,2012-12-09 23:35:00
5:55 PM,43.5,8.8,24,30.05,10.0,North,19.6,26.5,N/A,,Clear,10,2012-12-09 23:55:00
6:15 PM,42.4,8.8,25,30.07,10.0,North,21.9,28.8,N/A,,Clear,10,2012-12-10 00:15:00
6:35 PM,41.5,8.6,26,30.08,10.0,North,21.9,29.9,N/A,,Clear,10,2012-12-10 00:35:00
6:55 PM,40.6,8.8,27,30.10,10.0,North,19.6,25.3,N/A,,Clear,10,2012-12-10 00:55:00
7:15 PM,39.7,9.3,29,30.11,10.0,North,20.7,26.5,N/A,,Scattered Clouds,10,2012-12-10 01:15:00
7:35 PM,39.0,9.3,29,30.13,10.0,North,26.5,32.2,N/A,,Scattered Clouds,10,2012-12-10 01:35:00
7:55 PM,38.1,9.0,30,30.14,10.0,North,17.3,26.5,N/A,,Clear,360,2012-12-10 01:55:00
8:15 PM,37.4,9.1,31,30.15,10.0,North,18.4,23.0,N/A,,Clear,350,2012-12-10 02:15:00
8:35 PM,36.7,8.6,31,30.16,10.0,North,20.7,25.3,N/A,,Clear,350,2012-12-10 02:35:00
8:55 PM,36.0,8.2,32,30.16,10.0,North,20.7,26.5,N/A,,Scattered Clouds,350,2012-12-10 02:55:00
9:15 PM,35.2,7.5,32,30.16,10.0,North,17.3,24.2,N/A,,Scattered Clouds,360,2012-12-10 03:15:00
9:35 PM,34.5,7.3,32,30.16,10.0,North,18.4,25.3,N/A,,Clear,360,2012-12-10 03:35:00
9:55 PM,34.0,7.3,33,30.17,10.0,North,16.1,21.9,N/A,,Clear,350,2012-12-10 03:55:00
10:15 PM,33.8,7.3,33,30.18,10.0,North,15.0,-,N/A,,Clear,350,2012-12-10 04:15:00
10:35 PM,33.6,7.2,33,30.18,10.0,NNW,15.0,-,N/A,,Clear,340,2012-12-10 04:35:00
10:55 PM,33.4,7.2,33,30.19,10.0,North,16.1,21.9,N/A,,Clear,350,2012-12-10 04:55:00
11:15 PM,33.4,6.8,33,30.20,10.0,North,15.0,23.0,N/A,,Clear,350,2012-12-10 05:15:00
11:35 PM,33.3,6.8,33,30.19,10.0,North,11.5,-,N/A,,Clear,350,2012-12-10 05:35:00
11:55 PM,34.2,7.0,32,30.20,10.0,North,15.0,-,N/A,,Scattered Clouds,360,2012-12-10 05:55:00